International Virtual Aviation Organisation

Eastern Europe and Northern Asia MCD

 

Карточка аэропорта UATE

Внимание!
Информация на этой странице в стадии наполнения.
Если вы не увидели какой-то информации, или заметили неточность - пожалуйста сообщите нам!
Спасибо!
Команда RU-STAFF
Название аэропортаАктау
Название аэропорта (англ.)Aktau
Превышение75 ft. (22.9 m.)
Координаты43°51.138', 51°5.3639999999999'
Высота перехода2050
Эшелон переходаFL40
Коды ответчика3460-3467, 3550-3557
Зона ОрВДАктобе РПИ (UATT)
Данные METARUATE 110300Z 08005MPS CAVOK 13/04 Q1019 R30/0///70 NOSIG RMK QFE763/1017
Проноз погоды (TAF)UATE 102304Z 1100/1124 07003G08MPS 3100 BR BKN005 SCT033CB TX25/1109Z TN07/1103Z TEMPO 1100/1103 VRB03MPS 0200 FG VV001 BECMG 1104/1106 11007G13MPS 6000 DRDU SCT007
NOTAMshow/hide NOTAM
AWOS   TABLE

Информация о ВПП

ВПП Длина ВПП (м.) Покрытие Курс ВПП Частота ILS
123052Асфальтобетон122109.5
303052Асфальт302111.1

Диспетчерские позиции

Позывной Наименование органа УВД Частота
UATE_TWRАктау Вышка120.7
UATE_APPАктау Поход134.3



Спутниковое изображение